sat.trackr.live / text

‹ back to catalog

STARLINK-1320

NORAD 45572 · 2020-025AT

PAYLOAD ACTIVE UNKNOWN

§ Identity

Operator
Country
US
Launch date
2020-04-22
Launch site
AFETR
Launch vehicle
Mass (kg)
RCS (m²)

Purposes: comms

External: N2YO · Heavens-Above · Gunter

§ Orbital elements

Epoch: 2026-05-24T19:22:29.622720Z

Period
91.00 min
Inclination
53.0441°
Eccentricity
0.0004735
Mean motion
15.82366190 rev/d
Perigee alt
320.6 km
Apogee alt
326.9 km
Semi-major
6,701.9 km
B*
5.2549e-4
RAAN
326.3491°
Arg perigee
271.9985°
Mean anomaly
88.0494°
Rev number
33,880

§ Raw data

STARLINK-13201 45572U 20025AT  26144.80728730  .00111973  00000+0  52549-3 0  99932 45572  53.0441 326.3491 0004735 271.9985  88.0494 15.82366190338806

JSON: /api/v1/satellites/45572 · /tle

For live sub-satellite position, see the globe view (requires WebGL).

§ Visibility from observer

Set your observer location to see the next 7 days of passes ≥ 10°. The values pass through the URL so the page stays shareable.

No JS? Fill the form by hand. The geolocation button needs JavaScript.